Location: Unspecified
(49.2170°N, 0.0000°E)
Time: 07:58:55
(UTC+00:00)

Explorer 7 - Pass Details

Date: 28 January 2021
Orbit: 484 x 677 km, 50.3° (Epoch: 04 March)

Event Time Altitude Azimuth Distance (km) Brightness Sun altitude
Exits shadow 06:28:41 17° 281° (W) 1,378 8.2 -11.1°
Maximum altitude 06:31:42 79° 6° (N) 544 6.7 -10.6°
Drops below altitude 10° 06:35:52 10° 94° (E) 1,829 11.0 -10.0°
Sets 06:38:11 0° 96° (E) 2,759 12.4 -9.6°
